EIN27T EIDW-EGBB

Flight info

Callsign EIN27T
Flight time 0h 38m
Altitude 23000
Route DEXEN2J DEXEN Y124 DOLOP
Aircraft A320/M-SDE3FGHIRWY/LB1

Departure

Time 2026-05-07 16:09
Airport Dublin Airport (EIDW)

Arrival

Time 2026-05-07 16:47
Airport Birmingham Airport (EGBB)
Time Latitude Longitude Altitude Speed Heading
2026-05-07 15:32 53.42333 -6.24273 226 ft 0 kts 314°
2026-05-07 15:58 53.42330 -6.24269 225 ft 2 kts 314°
2026-05-07 15:58 53.42319 -6.24249 226 ft 2 kts 313°
2026-05-07 15:58 53.42308 -6.24229 228 ft 2 kts 311°
2026-05-07 15:58 53.42297 -6.24208 225 ft 2 kts 306°
2026-05-07 15:59 53.42289 -6.24184 226 ft 2 kts 252°
2026-05-07 15:59 53.42292 -6.24172 227 ft 0 kts 241°
2026-05-07 15:59 53.42291 -6.24174 227 ft 0 kts 241°
2026-05-07 15:59 53.42289 -6.24178 227 ft 0 kts 241°
2026-05-07 16:01 53.42289 -6.24181 225 ft 2 kts 241°
2026-05-07 16:01 53.42272 -6.24221 226 ft 7 kts 228°
2026-05-07 16:01 53.42227 -6.24297 225 ft 11 kts 225°
2026-05-07 16:01 53.42202 -6.24437 225 ft 15 kts 283°
2026-05-07 16:02 53.42216 -6.24635 225 ft 19 kts 272°
2026-05-07 16:02 53.42291 -6.24809 225 ft 22 kts 343°
2026-05-07 16:02 53.42443 -6.24922 225 ft 25 kts 335°
2026-05-07 16:02 53.42597 -6.25032 225 ft 23 kts 335°
2026-05-07 16:03 53.42714 -6.25118 225 ft 11 kts 336°
2026-05-07 16:03 53.42782 -6.25128 225 ft 9 kts 351°
2026-05-07 16:03 53.42837 -6.25165 226 ft 8 kts 334°
2026-05-07 16:03 53.42884 -6.25202 225 ft 7 kts 334°
2026-05-07 16:04 53.42930 -6.25238 225 ft 12 kts 336°
2026-05-07 16:04 53.43068 -6.25330 225 ft 25 kts 338°
2026-05-07 16:04 53.43201 -6.25334 225 ft 20 kts 65°
2026-05-07 16:04 53.43207 -6.25126 225 ft 17 kts 95°
2026-05-07 16:05 53.43194 -6.24942 225 ft 15 kts 94°
2026-05-07 16:05 53.43187 -6.24777 225 ft 14 kts 94°
2026-05-07 16:05 53.43198 -6.24630 225 ft 12 kts 80°
2026-05-07 16:05 53.43192 -6.24500 225 ft 11 kts 94°
2026-05-07 16:06 53.43226 -6.24417 225 ft 9 kts 17°
2026-05-07 16:06 53.43291 -6.24404 225 ft 12 kts
2026-05-07 16:06 53.43341 -6.24326 225 ft 10 kts 83°
2026-05-07 16:06 53.43334 -6.24214 224 ft 10 kts 98°
2026-05-07 16:07 53.43324 -6.24028 224 ft 15 kts 94°
2026-05-07 16:07 53.43338 -6.23882 225 ft 12 kts 41°
2026-05-07 16:07 53.43425 -6.23849 219 ft 15 kts
2026-05-07 16:07 53.43489 -6.23916 216 ft 0 kts 275°
2026-05-07 16:08 53.43496 -6.24054 218 ft 39 kts 275°
2026-05-07 16:08 53.43542 -6.24924 225 ft 107 kts 275°
2026-05-07 16:09 53.43632 -6.26489 234 ft 160 kts 276°
2026-05-07 16:09 53.43745 -6.28448 604 ft 175 kts 273°
2026-05-07 16:09 53.44053 -6.30437 1271 ft 183 kts 301°
2026-05-07 16:09 53.44929 -6.32126 1748 ft 203 kts 305°
2026-05-07 16:10 53.45872 -6.34035 2293 ft 217 kts 303°
2026-05-07 16:10 53.46819 -6.36048 3053 ft 226 kts 303°
2026-05-07 16:10 53.47809 -6.38262 3492 ft 249 kts 302°
2026-05-07 16:10 53.48862 -6.40685 4163 ft 262 kts 302°
2026-05-07 16:11 53.49936 -6.43189 5066 ft 266 kts 302°
2026-05-07 16:11 53.50899 -6.45825 6008 ft 264 kts 285°
2026-05-07 16:11 53.50989 -6.48803 6844 ft 261 kts 252°
2026-05-07 16:11 53.50031 -6.51344 7666 ft 263 kts 218°
2026-05-07 16:12 53.48347 -6.52493 8542 ft 269 kts 186°
2026-05-07 16:12 53.46503 -6.51832 9377 ft 281 kts 153°
2026-05-07 16:12 53.44965 -6.49723 10160 ft 292 kts 137°
2026-05-07 16:12 53.43526 -6.47113 10451 ft 317 kts 133°
2026-05-07 16:13 53.42059 -6.44199 10829 ft 334 kts 133°
2026-05-07 16:13 53.40549 -6.41188 11529 ft 340 kts 133°
2026-05-07 16:13 53.39012 -6.38142 12295 ft 345 kts 130°
2026-05-07 16:13 53.37742 -6.34682 13053 ft 352 kts 118°
2026-05-07 16:14 53.36900 -6.30796 13807 ft 360 kts 106°
2026-05-07 16:14 53.36426 -6.26648 14467 ft 364 kts 103°
2026-05-07 16:14 53.35976 -6.22455 15122 ft 368 kts 103°
2026-05-07 16:14 53.35521 -6.18220 15766 ft 372 kts 103°
2026-05-07 16:15 53.35060 -6.13940 16409 ft 375 kts 103°
2026-05-07 16:15 53.34593 -6.09619 17055 ft 379 kts 103°
2026-05-07 16:15 53.34122 -6.05257 17699 ft 382 kts 103°
2026-05-07 16:15 53.33653 -6.00912 18311 ft 386 kts 103°
2026-05-07 16:16 53.33175 -5.96460 18852 ft 390 kts 103°
2026-05-07 16:16 53.32693 -5.91981 19415 ft 393 kts 103°
2026-05-07 16:16 53.32204 -5.87462 19971 ft 397 kts 103°
2026-05-07 16:16 53.31874 -5.84446 20345 ft 399 kts 103°
2026-05-07 16:17 53.31370 -5.79867 20891 ft 402 kts 103°
2026-05-07 16:17 53.30855 -5.75234 21443 ft 406 kts 103°
2026-05-07 16:17 53.30336 -5.70581 21998 ft 409 kts 103°
2026-05-07 16:17 53.29815 -5.65882 22527 ft 413 kts 103°
2026-05-07 16:18 53.29289 -5.61148 22897 ft 416 kts 103°
2026-05-07 16:18 53.28755 -5.56385 22976 ft 418 kts 103°
2026-05-07 16:18 53.28220 -5.51604 22981 ft 419 kts 102°
2026-05-07 16:18 53.27941 -5.46745 22982 ft 421 kts 95°
2026-05-07 16:19 53.27812 -5.41862 22984 ft 421 kts 95°
2026-05-07 16:19 53.27677 -5.36976 22984 ft 421 kts 95°
2026-05-07 16:19 53.27537 -5.32099 22981 ft 421 kts 95°
2026-05-07 16:19 53.27394 -5.27280 22979 ft 421 kts 95°
2026-05-07 16:20 53.27245 -5.22395 22979 ft 421 kts 95°
2026-05-07 16:20 53.27093 -5.17515 22979 ft 421 kts 95°
2026-05-07 16:20 53.26941 -5.12631 22977 ft 421 kts 95°
2026-05-07 16:20 53.26783 -5.07753 22978 ft 420 kts 95°
2026-05-07 16:21 53.26619 -5.02879 22977 ft 420 kts 95°
2026-05-07 16:21 53.26456 -4.98006 22980 ft 420 kts 95°
2026-05-07 16:21 53.26291 -4.93127 22978 ft 420 kts 95°
2026-05-07 16:21 53.26123 -4.88254 22988 ft 420 kts 95°
2026-05-07 16:22 53.25952 -4.83386 22986 ft 420 kts 95°
2026-05-07 16:22 53.25776 -4.78506 22983 ft 420 kts 95°
2026-05-07 16:22 53.25602 -4.73637 22987 ft 420 kts 95°
2026-05-07 16:22 53.25434 -4.68766 22994 ft 420 kts 95°
2026-05-07 16:23 53.25273 -4.63892 22996 ft 420 kts 95°
2026-05-07 16:23 53.25111 -4.59019 22985 ft 420 kts 95°
2026-05-07 16:23 53.24947 -4.54153 22992 ft 420 kts 95°
2026-05-07 16:23 53.24782 -4.49355 22998 ft 419 kts 95°
2026-05-07 16:24 53.24609 -4.44430 22997 ft 419 kts 95°
2026-05-07 16:24 53.24437 -4.39638 22998 ft 419 kts 95°
2026-05-07 16:24 53.24265 -4.34787 22997 ft 419 kts 95°
2026-05-07 16:24 53.24092 -4.29934 22997 ft 419 kts 95°
2026-05-07 16:25 53.23916 -4.25083 22997 ft 419 kts 95°
2026-05-07 16:25 53.23737 -4.20230 22997 ft 419 kts 95°
2026-05-07 16:25 53.23553 -4.15374 22998 ft 419 kts 96°
2026-05-07 16:25 53.23367 -4.10526 22997 ft 419 kts 96°
2026-05-07 16:26 53.23178 -4.05672 22991 ft 418 kts 95°
2026-05-07 16:26 53.22987 -4.00830 22997 ft 417 kts 96°
2026-05-07 16:26 53.22795 -3.96003 23006 ft 417 kts 95°
2026-05-07 16:26 53.22600 -3.91178 23009 ft 416 kts 96°
2026-05-07 16:27 53.22401 -3.86341 23011 ft 416 kts 96°
2026-05-07 16:27 53.22201 -3.81532 23010 ft 416 kts 96°
2026-05-07 16:27 53.21998 -3.76713 23009 ft 416 kts 96°
2026-05-07 16:27 53.21796 -3.71967 23007 ft 415 kts 96°
2026-05-07 16:28 53.21587 -3.67150 23006 ft 416 kts 96°
2026-05-07 16:28 53.21379 -3.62336 23006 ft 416 kts 96°
2026-05-07 16:28 53.21171 -3.57535 22996 ft 415 kts 96°
2026-05-07 16:28 53.20962 -3.52732 23001 ft 415 kts 96°
2026-05-07 16:29 53.20750 -3.47947 23001 ft 414 kts 96°
2026-05-07 16:29 53.20534 -3.43148 23006 ft 414 kts 96°
2026-05-07 16:29 53.20316 -3.38361 23002 ft 414 kts 96°
2026-05-07 16:29 53.20095 -3.33574 23000 ft 414 kts 96°
2026-05-07 16:30 53.19873 -3.28791 22999 ft 414 kts 96°
2026-05-07 16:30 53.19616 -3.24035 22900 ft 407 kts 100°
2026-05-07 16:30 53.18984 -3.19504 22482 ft 398 kts 110°
2026-05-07 16:30 53.17908 -3.15284 21873 ft 394 kts 121°
2026-05-07 16:31 53.16483 -3.11438 21237 ft 387 kts 125°
2026-05-07 16:31 53.15038 -3.07680 20615 ft 383 kts 124°
2026-05-07 16:31 53.13621 -3.03955 20001 ft 381 kts 125°
2026-05-07 16:31 53.12224 -3.00269 19412 ft 382 kts 124°
2026-05-07 16:32 53.10808 -2.96535 18822 ft 381 kts 124°
2026-05-07 16:32 53.09414 -2.92867 18242 ft 371 kts 125°
2026-05-07 16:32 53.08043 -2.89267 17582 ft 365 kts 125°
2026-05-07 16:32 53.06650 -2.85775 16945 ft 360 kts 127°
2026-05-07 16:33 53.05200 -2.82420 16316 ft 355 kts 129°
2026-05-07 16:33 53.03728 -2.79161 15715 ft 351 kts 130°
2026-05-07 16:33 53.02260 -2.75961 15109 ft 346 kts 130°
2026-05-07 16:33 53.00813 -2.72805 14517 ft 342 kts 130°
2026-05-07 16:34 52.99389 -2.69669 13936 ft 338 kts 130°
2026-05-07 16:34 52.97998 -2.66578 13300 ft 334 kts 129°
2026-05-07 16:34 52.96607 -2.63474 12669 ft 330 kts 129°
2026-05-07 16:34 52.95239 -2.60422 12254 ft 329 kts 129°
2026-05-07 16:35 52.93879 -2.57389 11840 ft 326 kts 129°
2026-05-07 16:35 52.92529 -2.54378 11431 ft 325 kts 129°
2026-05-07 16:35 52.91182 -2.51385 11022 ft 323 kts 130°
2026-05-07 16:35 52.89838 -2.48406 10623 ft 322 kts 130°
2026-05-07 16:36 52.88526 -2.45496 10230 ft 317 kts 130°
2026-05-07 16:36 52.87213 -2.42583 9841 ft 314 kts 130°
2026-05-07 16:36 52.85912 -2.39708 9403 ft 310 kts 130°
2026-05-07 16:36 52.84625 -2.36871 9052 ft 304 kts 130°
2026-05-07 16:37 52.83370 -2.34101 8760 ft 298 kts 130°
2026-05-07 16:37 52.82140 -2.31388 8469 ft 292 kts 130°
2026-05-07 16:37 52.80893 -2.28770 8179 ft 285 kts 132°
2026-05-07 16:37 52.79624 -2.26298 7878 ft 278 kts 134°
2026-05-07 16:38 52.78374 -2.23939 7571 ft 268 kts 134°
2026-05-07 16:38 52.77160 -2.21672 7266 ft 259 kts 134°
2026-05-07 16:38 52.75991 -2.19479 6959 ft 250 kts 134°
2026-05-07 16:38 52.74865 -2.17355 6668 ft 242 kts 134°
2026-05-07 16:39 52.73775 -2.15292 6368 ft 236 kts 133°
2026-05-07 16:39 52.72723 -2.13298 6055 ft 231 kts 134°
2026-05-07 16:39 52.71680 -2.11322 5742 ft 226 kts 134°
2026-05-07 16:39 52.70658 -2.09384 5431 ft 222 kts 134°
2026-05-07 16:40 52.69654 -2.07482 5119 ft 218 kts 133°
2026-05-07 16:40 52.68663 -2.05606 4807 ft 216 kts 133°
2026-05-07 16:40 52.67682 -2.03748 4499 ft 213 kts 133°
2026-05-07 16:40 52.66719 -2.01927 4185 ft 209 kts 133°
2026-05-07 16:41 52.65770 -2.00134 3873 ft 206 kts 133°
2026-05-07 16:41 52.64831 -1.98357 3565 ft 204 kts 132°
2026-05-07 16:41 52.63911 -1.96618 3258 ft 198 kts 133°
2026-05-07 16:41 52.63015 -1.94927 2979 ft 195 kts 132°
2026-05-07 16:42 52.62137 -1.93271 2765 ft 187 kts 133°
2026-05-07 16:42 52.61200 -1.91859 2629 ft 180 kts 144°
2026-05-07 16:42 52.60117 -1.90860 2547 ft 177 kts 156°
2026-05-07 16:42 52.59055 -1.89934 2511 ft 170 kts 150°
2026-05-07 16:43 52.58068 -1.88916 2511 ft 166 kts 148°
2026-05-07 16:43 52.57109 -1.87873 2510 ft 165 kts 147°
2026-05-07 16:43 52.56154 -1.86817 2517 ft 163 kts 147°
2026-05-07 16:43 52.55227 -1.85783 2406 ft 159 kts 147°
2026-05-07 16:44 52.54320 -1.84770 2230 ft 157 kts 146°
2026-05-07 16:44 52.53437 -1.83784 2028 ft 147 kts 146°
2026-05-07 16:44 52.52623 -1.82874 1849 ft 137 kts 146°
2026-05-07 16:44 52.51855 -1.82017 1668 ft 134 kts 146°
2026-05-07 16:45 52.51086 -1.81158 1483 ft 134 kts 146°
2026-05-07 16:45 52.50316 -1.80299 1304 ft 134 kts 146°
2026-05-07 16:45 52.49548 -1.79442 1119 ft 133 kts 146°
2026-05-07 16:45 52.48786 -1.78594 937 ft 133 kts 146°
2026-05-07 16:46 52.48029 -1.77750 749 ft 132 kts 146°
2026-05-07 16:46 52.47270 -1.76903 578 ft 132 kts 146°
2026-05-07 16:46 52.46516 -1.76059 402 ft 131 kts 145°
2026-05-07 16:46 52.45765 -1.75233 325 ft 128 kts 145°
2026-05-07 16:47 52.45157 -1.74554 329 ft 81 kts 148°
2026-05-07 16:47 52.44811 -1.74166 323 ft 50 kts 146°
2026-05-07 16:47 52.44667 -1.73921 325 ft 23 kts 77°
2026-05-07 16:47 52.44755 -1.73715 324 ft 11 kts 32°
2026-05-07 16:48 52.44811 -1.73693 322 ft 0 kts 18°
2026-05-07 16:49 52.44818 -1.73688 323 ft 3 kts 18°
2026-05-07 16:49 52.44855 -1.73668 322 ft 8 kts 18°
2026-05-07 16:49 52.44923 -1.73638 323 ft 13 kts
2026-05-07 16:50 52.45013 -1.73721 322 ft 17 kts 325°
2026-05-07 16:50 52.45136 -1.73813 323 ft 22 kts 324°
2026-05-07 16:50 52.45256 -1.73948 323 ft 18 kts 327°
2026-05-07 16:50 52.45348 -1.73898 322 ft 14 kts 57°
2026-05-07 16:51 52.45372 -1.73760 323 ft 10 kts 133°
2026-05-07 16:51 52.45334 -1.73736 322 ft 3 kts 149°
2026-05-07 16:51 52.45313 -1.73712 324 ft 0 kts 145°